[[{"header":{"parameterUnit":"m.s-1","parameterCategory":2,"la1":30.2991,"la2":30.254,"lo1":-89.0895,"lo2":-89.0444,"dy":0.0017,"dx":0.0017,"nx":28,"ny":28,"refTime":"2023-08-13T09:00:00:Z","depth":"0","parameterNumber":2,"parameterNumberName":"U-component_of_CURRENTS"},"data":[0,0,0,0,0,0,0,0,0,0,0,0,0,0,0,0,0,0,0,0,0,0,0,0,0,0,0,0,0,0,0,0,0,0,0,0,0,0,0,0,0,0,0,0,0,0,0,0,0,0,0,0,0,0,0,0,0,0,-0.0072,-0.0072,0,0.0061,0.0063,0.0065,0.013,0.0129,0.0129,0.0128,-0.0045,-0.0049,-0.0053,0,0,0,0,0,0,0,0,0,0,0,0,0,-0.0197,-0.0195,-0.0073,-0.0072,-0.0071,0.0061,0.0063,0.0066,0.013,0.0129,0.0129,0.0128,-0.0044,-0.0049,-0.0053,0,0,0,0,0,0,0,0,0,0,0,0,0,-0.0104,-0.0194,-0.0073,-0.0028,-0.0023,0.006,0.0063,0.0066,0.013,0.0129,0.0128,0.0127,-0.0042,-0.0048,-0.0054,-0.0069,0,0,-0.0072,-0.0075,0,0,0,0,0,0,0,0,-0.011,-0.0099,-0.0036,-0.0031,-0.0026,0.0071,-0.0044,0.0003,0.0131,0.008,0.0128,0.0127,-0.0039,-0.0045,-0.0002,-0.0077,-0.0085,-0.0073,-0.0076,-0.0079,-0.008,0,0,0,0,0,0,0,-0.0116,-0.0104,-0.0012,-0.0035,-0.0029,0.001,0.0023,-0.0033,0.0025,0.0084,0.0087,0.0091,-0.0037,0.0004,-0.0007,-0.0087,-0.0072,-0.0078,-0.0081,-0.0084,-0.0242,-0.0243,0,0,0,0,0,0,-0.015,-0.011,-0.0017,-0.0009,-0.0079,0.0012,0.0027,0.0047,0.0032,0.003,0.0092,0.0093,0.0014,-0.0,-0.0014,-0.0016,-0.0079,-0.0084,-0.0088,-0.0242,-0.0242,-0.0243,0,0,0,0,0,0,-0.0153,-0.0142,-0.0022,-0.0064,-0.0047,0.0014,0.0038,0.005,0.0086,0.004,0.0032,0.0112,0.0013,-0.0006,-0.0093,-0.0024,-0.0087,-0.0092,-0.0241,-0.0242,-0.0243,-0.0035,0,0,0,0,0,0,-0.0156,-0.0143,-0.0128,-0.0065,-0.0046,0.0026,0.0039,0.0053,0.0086,0.009,0.0054,0.0039,0.0011,-0.0084,-0.0099,-0.0034,-0.0097,-0.024,-0.0241,-0.0242,-0.0041,-0.0029,-0.0018,0,0,0,0,0,-0.0161,-0.0129,-0.0127,-0.0116,-0.003,0.0025,0.0041,0.0085,0.0088,0.0112,0.0058,0.004,-0.0102,-0.0091,-0.0108,-0.0042,-0.0239,-0.0241,-0.0242,-0.0046,-0.0031,-0.0019,0,0,0,0,0,0,-0.0139,-0.0119,-0.0115,-0.0069,-0.0034,0.0033,0.0079,0.0083,0.0076,0.0072,0.0015,-0.0005,-0.0064,-0.0107,-0.0093,-0.0102,-0.0167,-0.0172,-0.0012,0.0001,0.0012,-0.0052,-0.0102,0,0,0,0,0,-0.014,-0.0133,-0.0093,-0.0057,-0.0027,0.002,0.005,0.007,0.0067,0.007,0.0017,-0.0036,-0.0077,-0.0084,-0.0159,-0.0156,-0.0193,-0.0129,-0.0117,-0.0106,-0.0177,-0.015,-0.014,-0.0248,-0.0248,-0.0248,0,0,-0.0122,-0.0111,-0.0103,-0.0058,-0.0006,0.003,0.0041,0.0095,0.0109,0.004,0.0023,-0.0032,-0.009,-0.0093,-0.0115,-0.0111,-0.0082,-0.0108,-0.0097,-0.0177,-0.015,-0.0139,-0.0129,-0.0249,-0.0249,-0.0249,0,0,-0.0107,-0.0061,-0.0062,-0.0038,0.0005,0.0053,0.0057,0.0097,0.0115,0.0066,0.0039,0.0013,-0.0079,-0.0052,-0.006,-0.0043,-0.0061,-0.0052,0.0012,0.0045,0.0055,0.0063,0.011,0.012,0.0007,0.0007,0.0007,0,-0.0099,-0.0058,-0.0047,-0.0042,-0.0016,0.0054,0.0072,0.012,0.0103,0.0085,0.0053,-0.005,-0.0055,-0.0026,0.0007,-0.0007,-0.0012,-0.0005,0.0068,0.0074,0.0079,0.0124,0.0133,0.0017,0.0016,0.0015,0.0014,0,-0.0067,-0.0049,-0.0021,0.0,0.0002,0.0076,0.0098,0.013,0.013,0.011,0.0061,0.0045,-0.0009,0.0036,0.0031,0.0092,0.0073,0.0057,0.0057,0.0104,0.0147,0.0153,0.0031,0.0028,0.0025,0.0022,0,0,-0.0017,0.0,0.0002,-0.0005,0.0049,0.0051,0.0103,0.0147,0.018,0.0123,0.0132,0.01,0.007,0.0052,0.0093,0.015,0.0269,0.0135,0.0132,0.0218,0.0344,0.0539,0.0564,0.0281,0.0281,0.0281,0.0392,0,0.0031,0.0021,0.0023,0.0035,0.0048,0.0101,0.0117,0.0116,0.0157,0.0188,0.0176,0.0167,0.0098,0.0139,0.0166,0.023,0.0274,0.0237,0.0242,0.0241,0.0443,0.0573,0.0679,0.0802,0.0397,0.0398,0.0398,0,0.0066,0.0049,0.0044,0.002,0.0034,0.0068,0.013,0.0139,0.0201,0.0218,0.0206,0.0187,0.0257,0.0213,0.0259,0.0237,0.0264,0.0298,0.0305,0.0388,0.0445,0.0664,0.0826,0.0826,0.0406,0.0405,0.0405,0,0.0047,0.0064,0.006,0.0061,0.0051,0.0088,0.0121,0.0143,0.018,0.028,0.033,0.0307,0.0386,0.0347,0.0406,0.0341,0.0478,0.042,0.0587,0.0602,0.0633,0.0652,0.0812,0.0407,0.0407,0.0407,0.0407,0,0.0085,0.0085,0.008,0.0075,0.0099,0.0048,0.0116,0.0176,0.0267,0.0317,0.0342,0.0439,0.0419,0.0495,0.0462,0.0588,0.0522,0.0594,0.0651,0.0718,0.0742,0.0688,0.0582,0.0411,0.041,0.0409,0.0409,0,0.0064,0.006,0.0063,0.0076,0.0087,0.0087,0.0169,0.0231,0.0305,0.0427,0.0467,0.0589,0.0707,0.0705,0.0764,0.0747,0.0786,0.0852,0.0955,0.1022,0.1168,0.1067,0.0943,0.0875,0.1038,0.1044,0.1048,0,0.0069,0.006,0.0067,0.0082,0.0134,0.0156,0.0194,0.0262,0.0348,0.0512,0.0592,0.0772,0.0903,0.11,0.116,0.1209,0.1006,0.1325,0.1209,0.1222,0.1147,0.0869,0.0794,0.1343,0.1349,0.1355,0.1359,0,0.0092,0.0104,0.0108,0.0134,0.019,0.024,0.0331,0.04,0.0472,0.0587,0.0781,0.0911,0.1175,0.1359,0.1514,0.1525,0.1259,0.1444,0.1411,0.1366,0.1104,0.1056,0.1222,0.1409,0.1404,0.14,0.1397,0.1395,0.0155,0.0168,0.0171,0.0214,0.0262,0.0358,0.0412,0.051,0.0617,0.0766,0.089,0.1061,0.1391,0.1659,0.1733,0.1923,0.1596,0.1861,0.1731,0.1442,0.1388,0.1698,0.1986,0.1985,0.1983,0.1982,0.1981,0,0.0229,0.0224,0.0255,0.0297,0.0372,0.0395,0.0506,0.0558,0.0669,0.0797,0.0942,0.1245,0.1593,0.1827,0.2161,0.219,0.1935,0.2129,0.173,0.1634,0.1938,0.1978,0.2335,0.2335,0.2335,0.2335,0.2335,0.2335,0.0253,0.0282,0.0283,0.038,0.0431,0.0529,0.0592,0.0666,0.0741,0.0886,0.0989,0.1113,0.1442,0.1975,0.2276,0.2292,0.1941,0.1897,0.1696,0.1947,0.1909,0.1872,0.1893,0.2227,0.2226,0.1356,0.135,0.1345]},{"header":{"parameterUnit":"m.s-1","parameterCategory":2,"la1":30.2991,"la2":30.254,"lo1":-89.0895,"lo2":-89.0444,"dy":0.0017,"dx":0.0017,"nx":28,"ny":28,"refTime":"2023-08-13T09:00:00:Z","depth":"0","parameterNumber":3,"parameterNumberName":"V-component_of_CURRENTS"},"data":[0,0,0,0,0,0,0,0,0,0,0,0,0,0,0,0,0,0,0,0,0,0,0,0,0,0,0,0,0,0,0,0,0,0,0,0,0,0,0,0,0,0,0,0,0,0,0,0,0,0,0,0,0,0,0,0,0,0,0.021,0.0209,0,0.019,0.019,0.0191,0.0202,0.0201,0.0201,0.0201,0.017,0.017,0.0169,0,0,0,0,0,0,0,0,0,0,0,0,0,0.0271,0.0271,0.021,0.0209,0.0208,0.019,0.019,0.0191,0.0202,0.0201,0.0201,0.02,0.017,0.017,0.0169,0,0,0,0,0,0,0,0,0,0,0,0,0,0.0257,0.027,0.021,0.0204,0.0202,0.0189,0.019,0.0191,0.0202,0.0201,0.0201,0.02,0.017,0.017,0.0169,0.0176,0,0,0.0167,0.0167,0,0,0,0,0,0,0,0,0.0257,0.0256,0.0206,0.0204,0.0202,0.0189,0.02,0.0182,0.0202,0.0213,0.0201,0.02,0.0169,0.0168,0.0181,0.0175,0.0173,0.0167,0.0166,0.0166,0.0166,0,0,0,0,0,0,0,0.0258,0.0257,0.0213,0.0204,0.0202,0.0205,0.0203,0.0197,0.0202,0.0212,0.021,0.0192,0.0169,0.0181,0.018,0.0173,0.0167,0.0166,0.0166,0.0165,0.0169,0.017,0,0,0,0,0,0,0.024,0.0257,0.0213,0.0211,0.0217,0.0203,0.0202,0.0202,0.0202,0.0199,0.0192,0.0192,0.0183,0.018,0.0178,0.0123,0.0166,0.0165,0.0165,0.0169,0.0169,0.017,0,0,0,0,0,0,0.0242,0.0237,0.0214,0.0224,0.022,0.0202,0.0202,0.0202,0.0195,0.0185,0.0184,0.0183,0.0182,0.0179,0.0135,0.0124,0.0165,0.0164,0.0168,0.0169,0.0169,0.0052,0,0,0,0,0,0,0.0244,0.0239,0.0234,0.0224,0.0218,0.0188,0.0202,0.0201,0.0181,0.0181,0.0177,0.0175,0.0182,0.0136,0.0135,0.0124,0.0164,0.0167,0.0168,0.0169,0.0056,0.0049,0.0044,0,0,0,0,0,0.0247,0.0246,0.0235,0.0228,0.0213,0.0186,0.0185,0.0177,0.018,0.0173,0.0154,0.0174,0.0144,0.0134,0.0133,0.0121,0.0167,0.0168,0.0169,0.0058,0.005,0.0044,0,0,0,0,0,0,0.0266,0.0245,0.0234,0.0224,0.0193,0.0184,0.0165,0.0167,0.0152,0.0149,0.0149,0.0145,0.0115,0.0139,0.0129,0.0136,0.0172,0.0173,0.0089,0.0082,0.0076,0.0108,0.0163,0,0,0,0,0,0.0265,0.0263,0.0229,0.0218,0.0194,0.0178,0.0165,0.0164,0.0144,0.0139,0.0125,0.0129,0.0126,0.0114,0.0121,0.0099,0.0123,0.0108,0.0102,0.0096,0.0127,0.0107,0.01,0.0174,0.0174,0.0174,0,0,0.0253,0.0253,0.0241,0.0221,0.0195,0.0167,0.0171,0.0146,0.0136,0.0136,0.0105,0.0098,0.0117,0.0095,0.0088,0.0103,0.0087,0.0097,0.0091,0.0127,0.0107,0.01,0.0093,0.0174,0.0174,0.0174,0,0,0.0234,0.0235,0.0213,0.0206,0.0171,0.0156,0.0141,0.0114,0.0108,0.0071,0.008,0.0052,0.0043,0.0048,0.0053,0.0024,0.0055,0.0043,0.0026,0.0003,-0.0004,-0.001,-0.0006,-0.0011,0.0037,0.0037,0.0037,0,0.0217,0.021,0.0198,0.0191,0.0179,0.0144,0.0118,0.0109,0.0077,0.0067,0.0049,0.0043,0.0027,0.0027,0.001,0.0007,0.0013,0.0034,-0.001,-0.0015,-0.0019,-0.0013,-0.0017,0.0031,0.0032,0.0032,0.0033,0,0.0193,0.0187,0.0172,0.0152,0.0135,0.0115,0.0088,0.0059,0.0032,0.003,0.001,-0.0012,-0.0009,-0.0021,-0.0028,-0.0042,-0.0023,-0.0025,-0.0006,-0.0034,-0.0026,-0.0027,0.0023,0.0025,0.0027,0.0028,0,0,0.0164,0.015,0.0151,0.014,0.0128,0.0107,0.0073,0.0035,0.0032,-0.0008,-0.0013,-0.0046,-0.0044,-0.0032,-0.0035,-0.006,-0.0122,-0.006,-0.0059,-0.0079,-0.0154,-0.0112,-0.0109,-0.0148,-0.0148,-0.0148,-0.0145,0,0.014,0.0118,0.0128,0.0098,0.007,0.0061,0.0051,0.0032,0.0004,-0.001,-0.0026,-0.0031,-0.0046,-0.0056,-0.0085,-0.0099,-0.0127,-0.012,-0.0098,-0.0096,-0.0077,-0.011,-0.0048,-0.0036,-0.0146,-0.0146,-0.0146,0,0.0132,0.0116,0.0078,0.0083,0.0071,0.0061,0.0038,0.0028,0.0014,0.0011,-0.0002,-0.0011,-0.0038,-0.0059,-0.0092,-0.0089,-0.0123,-0.014,-0.0141,-0.005,-0.0057,-0.0017,-0.0035,0.0004,-0.0148,-0.0148,-0.0148,0,0.0119,0.0103,0.0067,0.0073,0.0054,0.0043,0.0031,0.0028,0.0037,0.0019,0.0027,0.0006,0.0007,-0.0048,-0.0095,-0.0106,-0.0127,-0.0151,-0.0134,-0.0131,-0.0039,-0.0027,-0.0028,-0.0181,-0.0181,-0.0181,-0.0181,0,0.0109,0.0097,0.0063,0.0047,0.0046,0.0042,0.0037,0.0044,0.006,0.0089,0.0046,0.0079,0.0005,-0.0022,-0.0083,-0.0097,-0.0122,-0.0121,-0.0128,-0.0077,-0.0068,0.0004,0.001,-0.0181,-0.0181,-0.0181,-0.0181,0,0.0101,0.0077,0.0055,0.003,0.0035,0.0034,0.005,0.0058,0.0081,0.0112,0.0106,0.0128,0.01,0.0031,-0.0035,-0.0053,-0.0053,-0.0105,-0.0024,-0.0021,0.0037,0.0035,0.0074,0.0165,-0.008,-0.0079,-0.0078,0,0.0091,0.0065,0.0047,0.0042,0.003,0.0023,0.0039,0.0068,0.0096,0.0155,0.0192,0.0178,0.02,0.0146,0.0064,-0.0019,-0.0001,0.002,0.0008,0.0065,0.0056,0.0056,0.0131,0.0075,0.0077,0.0079,0.008,0,0.0073,0.0068,0.0037,0.0034,0.0041,0.0053,0.008,0.0118,0.0163,0.0211,0.0299,0.0316,0.028,0.0263,0.0169,0.0112,0.0103,0.0054,0.0082,0.0166,0.0198,0.0276,0.0061,0.0095,0.0094,0.0093,0.0092,0.0091,0.0068,0.0064,0.0037,0.0033,0.0044,0.0098,0.0133,0.0181,0.0258,0.0372,0.0392,0.0476,0.0485,0.037,0.0268,0.0219,0.02,0.0241,0.023,0.0221,0.0328,0.0165,0.0208,0.0207,0.0206,0.0205,0.0205,0,0.0072,0.0062,0.0048,0.0057,0.0075,0.0096,0.0175,0.0233,0.0339,0.0451,0.0533,0.068,0.0647,0.0567,0.0482,0.0434,0.0414,0.0417,0.043,0.0498,0.0327,0.0354,0.0468,0.0468,0.0468,0.0468,0.0468,0.0467,0.0074,0.0064,0.0056,0.0087,0.01,0.0188,0.0249,0.0349,0.0449,0.0637,0.0771,0.0871,0.0982,0.0742,0.0638,0.0591,0.0644,0.0576,0.0621,0.0481,0.0463,0.0447,0.0474,0.0611,0.0611,0.0847,0.0849,0.085]}],[{"header":{"parameterUnit":"m.s-1","parameterCategory":2,"la1":30.2991,"la2":30.254,"lo1":-89.0895,"lo2":-89.0444,"dy":0.0017,"dx":0.0017,"nx":28,"ny":28,"refTime":"2023-08-13T09:00:00:Z","depth":"2","parameterNumber":2,"parameterNumberName":"U-component_of_CURRENTS"},"data":[0,0,0,0,0,0,0,0,0,0,0,0,0,0,0,0,0,0,0,0,0,0,0,0,0,0,0,0,0,0,0,0,0,0,0,0,0,0,0,0,0,0,0,0,0,0,0,0,0,0,0,0,0,0,0,0,0,0,-0.2405,-0.2406,0,-0.2479,-0.248,-0.2481,-0.241,-0.2408,-0.2405,-0.2402,-0.234,-0.2341,-0.2342,0,0,0,0,0,0,0,0,0,0,0,0,0,-0.2187,-0.2192,-0.2405,-0.2406,-0.2407,-0.2479,-0.248,-0.2481,-0.2411,-0.2408,-0.2404,-0.2401,-0.234,-0.2341,-0.2342,0,0,0,0,0,0,0,0,0,0,0,0,0,-0.2273,-0.2193,-0.2405,-0.2381,-0.238,-0.2479,-0.248,-0.2481,-0.2412,-0.2407,-0.2403,-0.2399,-0.234,-0.2341,-0.2342,-0.2433,0,0,-0.2347,-0.2347,0,0,0,0,0,0,0,0,-0.2268,-0.2281,-0.2384,-0.2383,-0.2382,-0.2432,-0.238,-0.2459,-0.2413,-0.2399,-0.2402,-0.2397,-0.2362,-0.2361,-0.2385,-0.2431,-0.2428,-0.2347,-0.2348,-0.2348,-0.2348,0,0,0,0,0,0,0,-0.2263,-0.2277,-0.2434,-0.2385,-0.2384,-0.2361,-0.2369,-0.2395,-0.24,-0.24,-0.2395,-0.2406,-0.2359,-0.2384,-0.2383,-0.2427,-0.2347,-0.2348,-0.2349,-0.2349,-0.2347,-0.2346,0,0,0,0,0,0,-0.2261,-0.2273,-0.2431,-0.2436,-0.2314,-0.2369,-0.2377,-0.2419,-0.2402,-0.2397,-0.2409,-0.2402,-0.2384,-0.2381,-0.238,-0.2331,-0.2348,-0.2349,-0.235,-0.2347,-0.2346,-0.2345,0,0,0,0,0,0,-0.2257,-0.2276,-0.2428,-0.2353,-0.2371,-0.2377,-0.2425,-0.2423,-0.2418,-0.2411,-0.2402,-0.2401,-0.2381,-0.2378,-0.2356,-0.2333,-0.235,-0.2351,-0.2349,-0.2347,-0.2346,-0.2332,0,0,0,0,0,0,-0.2251,-0.2275,-0.2263,-0.2355,-0.2376,-0.2464,-0.2429,-0.2427,-0.2433,-0.2423,-0.2403,-0.2394,-0.2377,-0.2354,-0.2357,-0.2335,-0.2352,-0.235,-0.2348,-0.2346,-0.2333,-0.233,-0.2327,0,0,0,0,0,-0.2244,-0.2268,-0.2263,-0.2279,-0.2375,-0.2464,-0.2473,-0.2461,-0.2436,-0.244,-0.2405,-0.2393,-0.2344,-0.2356,-0.236,-0.2337,-0.235,-0.2348,-0.2346,-0.2335,-0.2331,-0.2327,0,0,0,0,0,0,-0.2145,-0.2266,-0.2262,-0.2312,-0.2366,-0.2451,-0.2458,-0.2462,-0.2449,-0.2426,-0.2404,-0.2394,-0.2359,-0.236,-0.2373,-0.2328,-0.2339,-0.2338,-0.2328,-0.2325,-0.2322,-0.2295,-0.2353,0,0,0,0,0,-0.2128,-0.2179,-0.2279,-0.2303,-0.235,-0.2403,-0.2423,-0.2432,-0.2454,-0.2444,-0.2422,-0.2392,-0.2368,-0.2352,-0.2338,-0.2341,-0.2279,-0.232,-0.2317,-0.2315,-0.2294,-0.2218,-0.2205,-0.2339,-0.2339,-0.2339,0,0,-0.2105,-0.216,-0.2191,-0.2283,-0.2336,-0.2388,-0.2405,-0.2459,-0.2452,-0.2443,-0.2405,-0.2389,-0.2366,-0.2339,-0.2324,-0.233,-0.2233,-0.2312,-0.2311,-0.229,-0.2214,-0.2201,-0.2189,-0.2337,-0.2338,-0.2338,0,0,-0.208,-0.214,-0.2174,-0.2233,-0.2306,-0.236,-0.2374,-0.2455,-0.2439,-0.2433,-0.24,-0.2366,-0.235,-0.2317,-0.23,-0.2283,-0.2221,-0.2276,-0.2242,-0.2169,-0.2156,-0.2145,-0.1996,-0.1972,-0.2274,-0.2274,-0.2274,0,-0.2032,-0.2088,-0.2187,-0.2226,-0.2263,-0.2347,-0.2384,-0.2407,-0.2436,-0.2419,-0.2402,-0.2344,-0.2331,-0.2283,-0.2259,-0.2274,-0.2195,-0.2261,-0.2163,-0.2151,-0.214,-0.1991,-0.1964,-0.2273,-0.2273,-0.2273,-0.2273,0,-0.2056,-0.207,-0.2111,-0.2188,-0.2236,-0.23,-0.2369,-0.2382,-0.2379,-0.2376,-0.2325,-0.2305,-0.2253,-0.2254,-0.2248,-0.2169,-0.2121,-0.2169,-0.2172,-0.2125,-0.1971,-0.1943,-0.2272,-0.2272,-0.2272,-0.2273,0,0,-0.2054,-0.2115,-0.2124,-0.2112,-0.223,-0.2275,-0.23,-0.2341,-0.2326,-0.2312,-0.2261,-0.2221,-0.2197,-0.2175,-0.2167,-0.2114,-0.1957,-0.21,-0.2097,-0.1947,-0.1717,-0.1653,-0.1616,-0.1988,-0.1985,-0.1982,-0.1621,0,-0.2039,-0.2068,-0.2114,-0.212,-0.2158,-0.2234,-0.2233,-0.2259,-0.2282,-0.2253,-0.2222,-0.217,-0.217,-0.2136,-0.2078,-0.2007,-0.1892,-0.2045,-0.1788,-0.1778,-0.1725,-0.1587,-0.1621,-0.1301,-0.1594,-0.1589,-0.1586,0,-0.2049,-0.2066,-0.2051,-0.2062,-0.2091,-0.2077,-0.2124,-0.2114,-0.2123,-0.2157,-0.2123,-0.2103,-0.2004,-0.2029,-0.1815,-0.1908,-0.178,-0.1722,-0.1708,-0.1635,-0.1664,-0.1405,-0.124,-0.154,-0.1543,-0.1547,-0.155,0,-0.1955,-0.2021,-0.1978,-0.1995,-0.2025,-0.1991,-0.2001,-0.2039,-0.2051,-0.2051,-0.2072,-0.1985,-0.1894,-0.1778,-0.1646,-0.1705,-0.1409,-0.148,-0.1276,-0.1268,-0.1238,-0.1234,-0.1279,-0.128,-0.1281,-0.1282,-0.1283,0,-0.1888,-0.1851,-0.1913,-0.1852,-0.1853,-0.1868,-0.1841,-0.1885,-0.1913,-0.1905,-0.1943,-0.1924,-0.1828,-0.1679,-0.1577,-0.1312,-0.1322,-0.1203,-0.1165,-0.1228,-0.1227,-0.1422,-0.1444,-0.1268,-0.1271,-0.1274,-0.1276,0,-0.1698,-0.1731,-0.1677,-0.1711,-0.1753,-0.1695,-0.178,-0.1789,-0.1811,-0.1805,-0.1792,-0.1795,-0.16,-0.1488,-0.1265,-0.1172,-0.0988,-0.0888,-0.093,-0.0904,-0.0894,-0.0919,-0.0583,-0.0577,-0.0573,-0.0569,-0.0566,0,-0.1581,-0.1538,-0.1572,-0.1592,-0.1571,-0.1586,-0.1641,-0.1727,-0.1768,-0.1727,-0.1712,-0.1536,-0.1444,-0.1095,-0.0928,-0.0666,-0.0773,-0.0542,-0.068,-0.0822,-0.0819,-0.0851,-0.0882,-0.0594,-0.0592,-0.0589,-0.0588,0,-0.141,-0.1395,-0.1334,-0.1412,-0.1445,-0.156,-0.1613,-0.1655,-0.1693,-0.1676,-0.1562,-0.1441,-0.1133,-0.0872,-0.0575,-0.0492,-0.061,-0.0484,-0.0589,-0.0801,-0.0814,-0.0819,-0.0851,-0.0568,-0.057,-0.0571,-0.0572,-0.0573,-0.129,-0.1219,-0.12,-0.123,-0.1343,-0.1477,-0.1491,-0.1554,-0.1543,-0.1417,-0.1363,-0.109,-0.0979,-0.0486,-0.0384,-0.0298,-0.0326,-0.0343,-0.0357,-0.0372,-0.0474,-0.0483,-0.0185,-0.0185,-0.0185,-0.0185,-0.0185,0,-0.1244,-0.1125,-0.112,-0.1157,-0.1264,-0.1376,-0.1474,-0.1447,-0.1361,-0.1198,-0.1017,-0.0738,-0.0515,-0.0389,-0.0174,-0.0104,-0.0222,-0.0162,-0.0321,-0.0339,-0.0356,-0.0467,-0.017,-0.017,-0.0169,-0.0169,0,0,-0.1207,-0.1134,-0.1083,-0.1127,-0.1164,-0.127,-0.1287,-0.1204,-0.1076,-0.0824,-0.0587,-0.0456,-0.0356,-0.021,-0.0214,-0.0124,-0.0262,-0.0172,-0.0195,-0.0404,-0.042,-0.0474,-0.0665,0,0,0,0,0]},{"header":{"parameterUnit":"m.s-1","parameterCategory":2,"la1":30.2991,"la2":30.254,"lo1":-89.0895,"lo2":-89.0444,"dy":0.0017,"dx":0.0017,"nx":28,"ny":28,"refTime":"2023-08-13T09:00:00:Z","depth":"2","parameterNumber":3,"parameterNumberName":"V-component_of_CURRENTS"},"data":[0,0,0,0,0,0,0,0,0,0,0,0,0,0,0,0,0,0,0,0,0,0,0,0,0,0,0,0,0,0,0,0,0,0,0,0,0,0,0,0,0,0,0,0,0,0,0,0,0,0,0,0,0,0,0,0,0,0,-0.0173,-0.0172,0,0.0026,0.0029,0.0032,0.0139,0.0138,0.0138,0.0137,0.0389,0.0396,0.0403,0,0,0,0,0,0,0,0,0,0,0,0,0,-0.0275,-0.0274,-0.0173,-0.0171,-0.017,0.0026,0.0029,0.0033,0.0139,0.0138,0.0137,0.0137,0.0387,0.0395,0.0404,0,0,0,0,0,0,0,0,0,0,0,0,0,-0.0161,-0.0274,-0.0173,-0.01,-0.0092,0.0025,0.0029,0.0034,0.0139,0.0138,0.0137,0.0136,0.0384,0.0394,0.0405,0.049,0,0,0.0438,0.0443,0,0,0,0,0,0,0,0,-0.0168,-0.0157,-0.0112,-0.0105,-0.0096,0.0049,0.0085,0.0186,0.0139,0.0061,0.0137,0.0136,0.0275,0.0295,0.0346,0.0502,0.0512,0.0439,0.0446,0.0451,0.0454,0,0,0,0,0,0,0,-0.0176,-0.0164,-0.0085,-0.0111,-0.01,-0.0013,0.0001,0.0106,0.0178,0.0067,0.0073,0.0082,0.0281,0.0335,0.0353,0.0516,0.0439,0.0449,0.0455,0.046,0.075,0.0752,0,0,0,0,0,0,-0.0227,-0.0172,-0.0092,-0.008,-0.0145,-0.0012,0.0005,0.0011,0.0176,0.0198,0.0083,0.0086,0.0317,0.034,0.0362,0.0452,0.0451,0.0461,0.0467,0.0749,0.0751,0.0752,0,0,0,0,0,0,-0.023,-0.0222,-0.01,-0.0128,-0.0108,-0.0012,-0.0004,0.0015,0.0069,0.0185,0.0209,0.0115,0.0317,0.0347,0.0448,0.0463,0.0466,0.0476,0.0748,0.075,0.0751,0.0646,0,0,0,0,0,0,-0.0234,-0.0224,-0.0211,-0.0132,-0.0109,-0.0043,-0.0004,0.0019,0.0071,0.0078,0.0221,0.0244,0.0319,0.0431,0.0459,0.0478,0.0484,0.0746,0.0749,0.0751,0.0648,0.0644,0.064,0,0,0,0,0,-0.0238,-0.0222,-0.0211,-0.02,-0.0102,-0.0044,-0.0022,0.005,0.0073,0.0097,0.0189,0.0239,0.0465,0.0441,0.0474,0.0496,0.0745,0.0748,0.0751,0.0649,0.0644,0.064,0,0,0,0,0,0,-0.0249,-0.0208,-0.0195,-0.0164,-0.0119,-0.0029,0.0008,0.0048,0.0145,0.0158,0.0262,0.0292,0.038,0.0461,0.0431,0.0588,0.0612,0.0622,0.0524,0.0521,0.0517,0.0487,0.0493,0,0,0,0,0,-0.0254,-0.0238,-0.0188,-0.0166,-0.0148,-0.0071,-0.003,0.0011,0.0091,0.0134,0.0228,0.0334,0.0422,0.0484,0.0575,0.0674,0.0666,0.071,0.0706,0.0702,0.0701,0.0675,0.0666,0.0761,0.0761,0.0761,0,0,-0.026,-0.023,-0.0223,-0.0168,-0.0122,-0.0087,-0.0046,0.0005,0.0048,0.0148,0.0248,0.0322,0.0441,0.0535,0.0584,0.0604,0.0667,0.0705,0.07,0.0702,0.0676,0.0666,0.0658,0.0763,0.0762,0.0762,0,0,-0.0271,-0.0235,-0.0232,-0.0192,-0.0138,-0.0088,-0.0085,0.0001,0.0053,0.0147,0.0216,0.0295,0.0455,0.053,0.0591,0.063,0.0635,0.0663,0.0638,0.0612,0.0602,0.0594,0.0536,0.0523,0.0675,0.0675,0.0675,0,-0.0277,-0.0259,-0.0219,-0.0197,-0.0158,-0.0101,-0.0076,-0.0012,0.0099,0.0136,0.0164,0.0352,0.0453,0.0545,0.0563,0.062,0.0584,0.0636,0.06,0.0592,0.0585,0.0528,0.0515,0.067,0.0671,0.0671,0.0671,0,-0.0285,-0.026,-0.0251,-0.021,-0.0163,-0.0128,-0.0059,-0.0008,0.0055,0.0113,0.0204,0.0324,0.0424,0.0474,0.0543,0.0561,0.054,0.0575,0.0591,0.0567,0.051,0.0499,0.0663,0.0665,0.0666,0.0667,0,0,-0.0325,-0.0271,-0.0265,-0.0246,-0.016,-0.0129,-0.0066,0.0002,0.0027,0.0127,0.0158,0.0318,0.0346,0.0416,0.0493,0.0503,0.0427,0.0517,0.0517,0.0423,0.0319,0.0349,0.0339,0.043,0.0428,0.0427,0.0283,0,-0.034,-0.0312,-0.0268,-0.0231,-0.0206,-0.0132,-0.0079,-0.0011,0.0052,0.0091,0.0184,0.0251,0.0332,0.0368,0.0381,0.0425,0.0398,0.0461,0.039,0.0388,0.0388,0.0329,0.0461,0.0349,0.0272,0.027,0.0268,0,-0.0353,-0.0329,-0.0297,-0.0239,-0.0223,-0.0192,-0.0114,-0.0071,-0.0008,0.0049,0.0098,0.015,0.0204,0.0258,0.027,0.0292,0.029,0.0312,0.0307,0.0369,0.0398,0.0374,0.0331,0.0249,0.0251,0.0252,0.0254,0,-0.0382,-0.0344,-0.0319,-0.0292,-0.0222,-0.0198,-0.0168,-0.0093,-0.0047,-0.0012,0.0014,0.006,0.0088,0.0091,0.0158,0.0187,0.013,0.0176,0.0187,0.0187,0.0309,0.0324,0.0136,0.0136,0.0136,0.0137,0.0137,0,-0.039,-0.0373,-0.0343,-0.032,-0.0297,-0.0249,-0.0216,-0.017,-0.0121,-0.0088,-0.0038,-0.0011,0.0045,0.0038,0.0077,0.0089,0.0054,0.0157,0.0153,0.0276,0.0289,0.0234,0.0248,0.0131,0.0133,0.0134,0.0135,0,-0.0419,-0.0387,-0.0368,-0.0322,-0.0304,-0.0303,-0.0235,-0.0222,-0.0171,-0.0143,-0.0134,-0.009,-0.0097,-0.0059,-0.0056,-0.0002,0.0009,0.0015,0.0143,0.0158,0.0089,0.0099,-0.0011,-0.0012,-0.0012,-0.0012,-0.0012,0,-0.043,-0.0429,-0.0384,-0.0369,-0.035,-0.033,-0.0303,-0.024,-0.0219,-0.0177,-0.0177,-0.0184,-0.017,-0.0172,-0.0082,-0.0062,-0.0048,0.0079,0.0193,0.0067,0.0073,0.0084,0.0094,0.0288,0.0291,0.0293,0.0294,0,-0.0465,-0.0452,-0.0419,-0.0398,-0.0375,-0.0358,-0.0331,-0.0314,-0.026,-0.0225,-0.0227,-0.0234,-0.0207,-0.0101,-0.0049,-0.0,0.0095,0.0119,-0.006,0.0321,0.0343,0.0352,0.0353,0.0312,0.031,0.0309,0.0308,0.0307,-0.0481,-0.0472,-0.0431,-0.0415,-0.0395,-0.0401,-0.0386,-0.0357,-0.0327,-0.0281,-0.0296,-0.0262,-0.017,-0.0062,0.0002,0.0129,0.0135,0.0249,0.0245,0.0239,0.0316,0.0339,0.0317,0.0315,0.0314,0.0313,0.0312,0,-0.0504,-0.0466,-0.0454,-0.0427,-0.0442,-0.0411,-0.0396,-0.0387,-0.0363,-0.0305,-0.0285,-0.0226,-0.0088,-0.0003,0.0249,0.0333,0.0333,0.0345,0.04,0.0389,0.0377,0.046,0.0499,0.0498,0.0497,0.0496,0,0,-0.0492,-0.0479,-0.047,-0.0479,-0.046,-0.0466,-0.0456,-0.0424,-0.0374,-0.032,-0.024,-0.0238,-0.0069,0.0083,0.0252,0.0423,0.0349,0.0411,0.0291,0.0339,0.0323,0.0394,0.0519,0,0,0,0,0]}],[{"header":{"parameterUnit":"m.s-1","parameterCategory":2,"la1":30.2991,"la2":30.254,"lo1":-89.0895,"lo2":-89.0444,"dy":0.0017,"dx":0.0017,"nx":28,"ny":28,"refTime":"2023-08-13T09:00:00:Z","depth":"4","parameterNumber":2,"parameterNumberName":"U-component_of_CURRENTS"},"data":[0,0,0,0,0,0,0,0,0,0,0,0,0,0,0,0,0,0,0,0,0,0,0,0,0,0,0,0,0,0,0,0,0,0,0,0,0,0,0,0,0,0,0,0,0,0,0,0,0,0,0,0,0,0,0,0,0,0,-0.1023,-0.1023,0,-0.1063,-0.1063,-0.1064,-0.1099,-0.1099,-0.1099,-0.1099,-0.1144,-0.1145,-0.1146,0,0,0,0,0,0,0,0,0,0,0,0,0,-0.1006,-0.1006,-0.1023,-0.1023,-0.1024,-0.1062,-0.1063,-0.1064,-0.1099,-0.1099,-0.1099,-0.11,-0.1144,-0.1145,-0.1146,0,0,0,0,0,0,0,0,0,0,0,0,0,-0.1028,-0.1006,-0.1023,-0.1044,-0.1046,-0.1062,-0.1063,-0.1064,-0.1099,-0.1099,-0.1099,-0.11,-0.1143,-0.1145,-0.1146,-0.1149,0,0,-0.1151,-0.1151,0,0,0,0,0,0,0,0,-0.1027,-0.1029,-0.1041,-0.1043,-0.1045,-0.1074,-0.1074,-0.1092,-0.1099,-0.1081,-0.1099,-0.11,-0.112,-0.1123,-0.1133,-0.1151,-0.1153,-0.1151,-0.1152,-0.1152,-0.1153,0,0,0,0,0,0,0,-0.1025,-0.1028,-0.1041,-0.1041,-0.1044,-0.1061,-0.1065,-0.1078,-0.11,-0.1083,-0.1085,-0.1086,-0.1121,-0.1131,-0.1134,-0.1153,-0.1151,-0.1152,-0.1153,-0.1153,-0.1205,-0.1206,0,0,0,0,0,0,-0.1014,-0.1026,-0.1039,-0.1042,-0.1034,-0.1061,-0.1065,-0.1066,-0.1099,-0.1104,-0.1085,-0.1087,-0.1128,-0.1132,-0.1135,-0.1188,-0.1152,-0.1154,-0.1154,-0.1205,-0.1205,-0.1206,0,0,0,0,0,0,-0.1014,-0.1015,-0.1038,-0.1033,-0.1037,-0.1061,-0.1062,-0.1067,-0.1091,-0.1101,-0.1107,-0.1106,-0.1129,-0.1133,-0.1173,-0.1188,-0.1154,-0.1156,-0.1204,-0.1205,-0.1206,-0.1262,0,0,0,0,0,0,-0.1013,-0.1015,-0.1026,-0.1032,-0.1037,-0.1058,-0.1062,-0.1067,-0.1089,-0.1093,-0.112,-0.1124,-0.1129,-0.1171,-0.1175,-0.119,-0.1157,-0.1203,-0.1204,-0.1205,-0.126,-0.1265,-0.1269,0,0,0,0,0,-0.1013,-0.1022,-0.1027,-0.1029,-0.1047,-0.1058,-0.1063,-0.1082,-0.109,-0.1105,-0.1133,-0.1124,-0.1178,-0.1174,-0.1177,-0.1193,-0.1203,-0.1204,-0.1205,-0.1258,-0.1264,-0.1269,0,0,0,0,0,0,-0.102,-0.1026,-0.1032,-0.1043,-0.1054,-0.1063,-0.108,-0.1089,-0.1123,-0.1128,-0.1143,-0.115,-0.1185,-0.118,-0.1174,-0.1207,-0.1183,-0.1185,-0.1222,-0.1228,-0.1232,-0.1211,-0.1158,0,0,0,0,0,-0.1025,-0.1037,-0.1041,-0.1053,-0.1058,-0.1072,-0.1084,-0.109,-0.1112,-0.1127,-0.1156,-0.1173,-0.1189,-0.1204,-0.1217,-0.1243,-0.1233,-0.1249,-0.1254,-0.1258,-0.1242,-0.1269,-0.1275,-0.1209,-0.1209,-0.1209,0,0,-0.1031,-0.1036,-0.1044,-0.1056,-0.1067,-0.1078,-0.1081,-0.1095,-0.1113,-0.1125,-0.1179,-0.1196,-0.12,-0.1233,-0.1246,-0.1234,-0.127,-0.126,-0.1264,-0.1245,-0.1271,-0.1277,-0.1283,-0.121,-0.121,-0.121,0,0,-0.1042,-0.1053,-0.1065,-0.1071,-0.1082,-0.1091,-0.1097,-0.1119,-0.1142,-0.1184,-0.1196,-0.1225,-0.1262,-0.1269,-0.1273,-0.1307,-0.1296,-0.1311,-0.1322,-0.1349,-0.1355,-0.136,-0.1352,-0.1356,-0.1313,-0.1313,-0.1313,0,-0.105,-0.106,-0.1071,-0.1078,-0.1083,-0.1098,-0.1104,-0.113,-0.1169,-0.1191,-0.1206,-0.1261,-0.1272,-0.1295,-0.131,-0.1318,-0.1323,-0.1306,-0.1357,-0.1361,-0.1366,-0.1356,-0.1359,-0.1316,-0.1316,-0.1315,-0.1315,0,-0.1057,-0.1073,-0.1078,-0.1093,-0.1104,-0.111,-0.1131,-0.1162,-0.1194,-0.1221,-0.1268,-0.1294,-0.1319,-0.1332,-0.1334,-0.1364,-0.1355,-0.1364,-0.1346,-0.1376,-0.1363,-0.1366,-0.132,-0.1319,-0.1318,-0.1318,0,0,-0.105,-0.1079,-0.1083,-0.1088,-0.1106,-0.111,-0.1146,-0.1178,-0.1199,-0.1256,-0.1289,-0.133,-0.1347,-0.1349,-0.136,-0.1384,-0.1422,-0.1389,-0.139,-0.1385,-0.1466,-0.1323,-0.1312,-0.1457,-0.1458,-0.1459,-0.1445,0,-0.1051,-0.1068,-0.1084,-0.11,-0.1102,-0.1124,-0.115,-0.1182,-0.1223,-0.1268,-0.1301,-0.1337,-0.1352,-0.1365,-0.1396,-0.1415,-0.1432,-0.1423,-0.1432,-0.1431,-0.1305,-0.1311,-0.1461,-0.1447,-0.1448,-0.1448,-0.1448,0,-0.1045,-0.1054,-0.1071,-0.109,-0.1093,-0.111,-0.1139,-0.1165,-0.1223,-0.1255,-0.1301,-0.1334,-0.1372,-0.1383,-0.143,-0.1431,-0.1445,-0.146,-0.146,-0.1302,-0.1292,-0.141,-0.1452,-0.1452,-0.1452,-0.1451,-0.1451,0,-0.1019,-0.1044,-0.1058,-0.1061,-0.1087,-0.1102,-0.1121,-0.1166,-0.1188,-0.1248,-0.127,-0.1329,-0.1347,-0.1396,-0.1423,-0.144,-0.1463,-0.1491,-0.137,-0.136,-0.1471,-0.1466,-0.1517,-0.1517,-0.1517,-0.1517,-0.1517,0,-0.0999,-0.101,-0.1047,-0.105,-0.1053,-0.1078,-0.1097,-0.1126,-0.1169,-0.1187,-0.1259,-0.1265,-0.1357,-0.1384,-0.1419,-0.1379,-0.1461,-0.1351,-0.1344,-0.1493,-0.1491,-0.1472,-0.1467,-0.1517,-0.1517,-0.1517,-0.1517,0,-0.0963,-0.0995,-0.1005,-0.1036,-0.1043,-0.1042,-0.1073,-0.1082,-0.1131,-0.1152,-0.1171,-0.1229,-0.1239,-0.1301,-0.1353,-0.1338,-0.134,-0.1308,-0.143,-0.1434,-0.1222,-0.122,-0.1171,-0.1166,-0.1162,-0.1158,-0.1155,0,-0.0942,-0.0949,-0.0987,-0.098,-0.0994,-0.1002,-0.1002,-0.1054,-0.1063,-0.111,-0.1108,-0.1133,-0.1162,-0.1108,-0.1186,-0.1207,-0.1207,-0.1202,-0.1234,-0.1187,-0.1186,-0.1191,-0.1195,-0.1148,-0.1147,-0.1146,-0.1144,0,-0.089,-0.0923,-0.0935,-0.0926,-0.0927,-0.0919,-0.0931,-0.0933,-0.0982,-0.1043,-0.1004,-0.1002,-0.0989,-0.1011,-0.1016,-0.1047,-0.1207,-0.1156,-0.1167,-0.1197,-0.1158,-0.1163,-0.1172,-0.1129,-0.1131,-0.1133,-0.1134,0,-0.0857,-0.0853,-0.0877,-0.0857,-0.0846,-0.0817,-0.0844,-0.0833,-0.0847,-0.091,-0.0886,-0.0913,-0.0957,-0.0924,-0.0942,-0.0936,-0.0942,-0.0945,-0.0966,-0.0984,-0.093,-0.0854,-0.0707,0,0,0,0,0,-0.0807,-0.0806,-0.0793,-0.0765,-0.0746,-0.0739,-0.0775,-0.081,-0.0872,-0.081,-0.0846,-0.0825,-0.0804,-0.082,-0.078,-0.0877,-0.0962,-0.0828,-0.0981,-0.1044,-0.1062,-0.1017,0,0,0,0,0,0,-0.0778,-0.0783,-0.0779,-0.068,-0.0633,-0.0608,-0.0629,-0.068,-0.0654,-0.072,-0.0708,-0.0756,-0.0751,-0.0797,-0.0749,-0.0759,-0.0837,-0.0853,-0.085,-0.1034,-0.105,-0.1064,-0.1024,0,0,0,0,0]},{"header":{"parameterUnit":"m.s-1","parameterCategory":2,"la1":30.2991,"la2":30.254,"lo1":-89.0895,"lo2":-89.0444,"dy":0.0017,"dx":0.0017,"nx":28,"ny":28,"refTime":"2023-08-13T09:00:00:Z","depth":"4","parameterNumber":3,"parameterNumberName":"V-component_of_CURRENTS"},"data":[0,0,0,0,0,0,0,0,0,0,0,0,0,0,0,0,0,0,0,0,0,0,0,0,0,0,0,0,0,0,0,0,0,0,0,0,0,0,0,0,0,0,0,0,0,0,0,0,0,0,0,0,0,0,0,0,0,0,-0.0309,-0.031,0,-0.033,-0.033,-0.0331,-0.0342,-0.0342,-0.0342,-0.0341,-0.0328,-0.0328,-0.0328,0,0,0,0,0,0,0,0,0,0,0,0,0,-0.0276,-0.0277,-0.0309,-0.031,-0.031,-0.033,-0.033,-0.0331,-0.0342,-0.0342,-0.0341,-0.0341,-0.0328,-0.0328,-0.0328,0,0,0,0,0,0,0,0,0,0,0,0,0,-0.0295,-0.0277,-0.0309,-0.0316,-0.0317,-0.033,-0.033,-0.0331,-0.0342,-0.0342,-0.0341,-0.0341,-0.0328,-0.0328,-0.0328,-0.0329,0,0,-0.0326,-0.0326,0,0,0,0,0,0,0,0,-0.0294,-0.0296,-0.0315,-0.0316,-0.0317,-0.0332,-0.0314,-0.0328,-0.0342,-0.0334,-0.0341,-0.0341,-0.0325,-0.0325,-0.0332,-0.0329,-0.0328,-0.0326,-0.0326,-0.0326,-0.0326,0,0,0,0,0,0,0,-0.0292,-0.0295,-0.0319,-0.0315,-0.0316,-0.0317,-0.032,-0.0317,-0.0331,-0.0335,-0.0335,-0.0335,-0.0326,-0.0333,-0.0332,-0.0328,-0.0326,-0.0326,-0.0326,-0.0326,-0.0359,-0.036,0,0,0,0,0,0,-0.0287,-0.0294,-0.0319,-0.032,-0.0303,-0.0318,-0.0321,-0.0328,-0.0332,-0.0332,-0.0335,-0.0335,-0.0333,-0.0332,-0.0331,-0.0352,-0.0326,-0.0326,-0.0326,-0.0358,-0.0359,-0.036,0,0,0,0,0,0,-0.0286,-0.0289,-0.0318,-0.0305,-0.0309,-0.0318,-0.0327,-0.0329,-0.0339,-0.0332,-0.0332,-0.0343,-0.0333,-0.0332,-0.0339,-0.035,-0.0326,-0.0325,-0.0356,-0.0358,-0.036,-0.0381,0,0,0,0,0,0,-0.0285,-0.0289,-0.03,-0.0305,-0.0309,-0.0329,-0.0327,-0.0329,-0.0338,-0.0339,-0.0339,-0.0338,-0.0333,-0.034,-0.0339,-0.035,-0.0325,-0.0355,-0.0357,-0.0359,-0.0379,-0.0383,-0.0386,0,0,0,0,0,-0.0284,-0.0298,-0.0301,-0.0304,-0.0322,-0.0329,-0.0332,-0.0339,-0.0339,-0.0347,-0.035,-0.0338,-0.0352,-0.034,-0.0339,-0.035,-0.0354,-0.0357,-0.0359,-0.0377,-0.0382,-0.0386,0,0,0,0,0,0,-0.0294,-0.03,-0.0304,-0.0321,-0.0326,-0.0331,-0.0341,-0.0342,-0.0352,-0.0355,-0.0347,-0.0346,-0.0362,-0.0354,-0.0341,-0.0368,-0.0353,-0.0355,-0.0367,-0.0372,-0.0376,-0.0381,-0.0325,0,0,0,0,0,-0.03,-0.0314,-0.0314,-0.0332,-0.0333,-0.0338,-0.0343,-0.0346,-0.0352,-0.0357,-0.0354,-0.0359,-0.0372,-0.0369,-0.0379,-0.0383,-0.0343,-0.0393,-0.0397,-0.04,-0.0406,-0.0333,-0.033,-0.0368,-0.0368,-0.0368,0,0,-0.031,-0.0315,-0.0325,-0.0335,-0.0341,-0.0353,-0.0342,-0.0352,-0.037,-0.0352,-0.0375,-0.0374,-0.0379,-0.0395,-0.04,-0.0386,-0.0371,-0.0403,-0.0406,-0.041,-0.0335,-0.0331,-0.0327,-0.037,-0.037,-0.0369,0,0,-0.0332,-0.034,-0.0354,-0.036,-0.0366,-0.037,-0.0372,-0.0376,-0.0385,-0.0401,-0.0401,-0.0401,-0.0416,-0.0417,-0.0421,-0.045,-0.04,-0.0459,-0.0472,-0.0402,-0.0397,-0.0392,-0.034,-0.0331,-0.0452,-0.0452,-0.0452,0,-0.0342,-0.0365,-0.036,-0.0373,-0.0385,-0.0378,-0.0396,-0.0407,-0.0414,-0.0426,-0.0414,-0.0432,-0.0427,-0.0446,-0.046,-0.0457,-0.0412,-0.045,-0.0403,-0.0398,-0.0392,-0.034,-0.0329,-0.0454,-0.0454,-0.0453,-0.0453,0,-0.0365,-0.0392,-0.0401,-0.0419,-0.0427,-0.0444,-0.0449,-0.0462,-0.0467,-0.0473,-0.0489,-0.0474,-0.0482,-0.0481,-0.048,-0.0459,-0.0439,-0.0418,-0.0383,-0.0389,-0.0335,-0.0323,-0.0456,-0.0455,-0.0455,-0.0454,0,0,-0.0375,-0.0411,-0.0416,-0.0441,-0.0455,-0.0466,-0.0495,-0.0519,-0.0542,-0.0534,-0.055,-0.0557,-0.0537,-0.0541,-0.0525,-0.0464,-0.0389,-0.0428,-0.0423,-0.0363,-0.0237,-0.0248,-0.0236,-0.0347,-0.0345,-0.0343,-0.0214,0,-0.0399,-0.0436,-0.0448,-0.0497,-0.0518,-0.0528,-0.0557,-0.0576,-0.0586,-0.0597,-0.0574,-0.0585,-0.0564,-0.056,-0.0498,-0.0425,-0.0359,-0.0427,-0.0253,-0.0248,-0.0245,-0.0223,-0.0337,-0.0205,-0.0202,-0.02,-0.0199,0,-0.042,-0.0446,-0.0491,-0.0546,-0.0555,-0.0581,-0.0623,-0.0649,-0.0664,-0.0664,-0.0655,-0.064,-0.0591,-0.0552,-0.0406,-0.0446,-0.035,-0.0275,-0.0267,-0.0262,-0.0237,-0.0198,-0.0177,-0.0179,-0.018,-0.0182,-0.0183,0,-0.0428,-0.0482,-0.0523,-0.054,-0.059,-0.0618,-0.0645,-0.0672,-0.0695,-0.0703,-0.07,-0.0651,-0.0612,-0.0488,-0.0364,-0.0369,-0.0178,-0.0162,-0.0081,-0.008,-0.0098,-0.0104,-0.0036,-0.0036,-0.0037,-0.0037,-0.0037,0,-0.0452,-0.049,-0.0535,-0.056,-0.0616,-0.0639,-0.0692,-0.0713,-0.0729,-0.0747,-0.0731,-0.0711,-0.0586,-0.0482,-0.0358,-0.0191,-0.0168,-0.008,-0.0042,-0.0114,-0.0123,-0.0089,-0.0097,-0.0032,-0.0033,-0.0034,-0.0035,0,-0.0463,-0.0491,-0.0549,-0.0605,-0.0625,-0.0665,-0.0719,-0.0752,-0.0762,-0.0774,-0.0774,-0.073,-0.0596,-0.0469,-0.0264,-0.0184,-0.0024,0.0032,-0.0067,-0.0039,0.0026,0.0015,0.0141,0.0142,0.0142,0.0143,0.0143,0,-0.0471,-0.05,-0.0573,-0.0608,-0.064,-0.0696,-0.0733,-0.0765,-0.0784,-0.0779,-0.0772,-0.0683,-0.0632,-0.0358,-0.0228,-0.0002,0.0028,0.0096,0.0068,0.0023,0.0047,0.0035,0.0023,0.0144,0.0145,0.0145,0.0145,0,-0.0491,-0.052,-0.0562,-0.0624,-0.0675,-0.0733,-0.0777,-0.0784,-0.0807,-0.0813,-0.0751,-0.0655,-0.051,-0.0344,-0.018,-0.0017,0.004,0.0104,0.0104,0.0078,0.0029,0.0049,0.0037,0.0147,0.0147,0.0147,0.0147,0,-0.05,-0.0533,-0.0583,-0.0638,-0.0702,-0.0749,-0.0776,-0.0778,-0.0791,-0.0767,-0.0741,-0.0617,-0.0549,-0.0349,-0.0192,-0.0048,-0.0009,0.0028,0.0033,0.0032,-0.0053,-0.0134,-0.0026,0,0,0,0,0,-0.0505,-0.0538,-0.059,-0.0654,-0.0716,-0.0751,-0.0795,-0.0811,-0.0814,-0.0763,-0.0749,-0.0616,-0.0415,-0.0342,-0.0191,-0.0178,0.001,-0.0,0.0054,0.016,0.0158,0.0074,0,0,0,0,0,0,-0.0512,-0.0559,-0.0584,-0.0652,-0.0693,-0.0761,-0.0789,-0.0795,-0.0757,-0.0742,-0.0627,-0.0587,-0.0382,-0.0488,-0.0188,-0.015,-0.0098,0.0091,0.0094,0.0162,0.016,0.0157,0.0071,0,0,0,0,0]}]]